PST,Max TemperatureF,Mean TemperatureF,Min TemperatureF,Max Dew PointF,MeanDew PointF,Min DewpointF,Max Humidity, Mean Humidity, Min Humidity, Max Sea Level PressureIn, Mean Sea Level PressureIn, Min Sea Level PressureIn, Max VisibilityMiles, Mean VisibilityMiles, Min VisibilityMiles, Max Wind SpeedMPH, Mean Wind SpeedMPH, Max Gust SpeedMPH,PrecipitationIn, CloudCover, Events, WindDirDegrees
2013-1-1,62,54,45,43,34,25,69,52,25,30.25,30.17,30.11,10,10,8,8,2,,0.00,2,,89
2013-1-2,66,54,42,42,32,12,71,50,13,30.14,30.08,30.05,10,10,10,9,2,,0.00,0,,230
2013-1-3,71,56,42,44,30,11,71,46,10,30.18,30.11,30.06,10,10,10,8,1,,0.00,0,Rain,242
2013-1-4,66,56,46,45,26,9,74,37,11,30.28,30.22,30.18,10,10,2,8,2,,0.00,0,Rain,273
2013-1-5,64,54,43,46,34,18,80,52,18,30.30,30.24,30.19,10,10,10,9,1,,0.00,0,,265
2013-1-6,57,52,48,48,45,42,100,80,58,30.21,30.14,30.04,10,8,2,16,2,26,0.10,6,Rain,263
2013-1-7,64,55,46,44,38,28,86,55,26,30.11,30.03,29.99,10,10,10,17,3,17,0.00,0,,287
2013-1-8,70,58,45,50,43,34,86,65,31,30.12,30.07,30.03,10,10,8,8,1,,0.00,0,,222
2013-1-9,66,57,48,54,47,41,90,74,42,30.14,30.08,30.02,10,9,2,10,2,,0.00,2,,250
2013-1-10,59,54,46,50,37,22,89,56,24,30.12,30.00,29.94,10,10,6,18,4,33,0.01,4,Rain,299
2013-1-11,55,50,45,30,23,18,46,35,26,30.21,30.13,30.08,10,10,2,12,5,20,0.00,0,,300
2013-1-12,55,48,41,27,23,15,51,37,21,30.18,30.12,30.09,10,10,1,9,3,,0.00,1,,262
2013-1-13,55,47,39,30,24,14,56,41,20,30.19,30.12,30.07,10,10,10,13,2,,0.00,0,,287
2013-1-14,55,46,37,26,16,0,59,32,11,30.35,30.27,30.17,10,10,2,9,2,,0.00,0,,165
2013-1-15,57,47,37,40,23,10,71,41,16,30.47,30.39,30.35,10,10,10,10,2,,0.00,0,,274
2013-1-16,64,52,41,42,35,25,76,56,26,30.36,30.25,30.14,10,10,10,9,1,,0.00,0,,286
2013-1-17,75,59,43,37,26,16,71,35,10,30.18,30.12,30.06,10,10,2,5,1,,0.00,0,,326
2013-1-18,79,66,54,35,23,17,41,23,10,30.15,30.10,30.05,10,10,10,6,1,,0.00,0,,280
2013-1-19,78,63,48,35,22,13,39,24,8,30.19,30.12,30.08,10,10,10,7,1,,0.00,0,,273
2013-1-20,82,65,48,39,22,6,53,26,6,30.14,30.08,30.00,10,10,10,8,1,,0.00,0,,290
2013-1-21,77,62,48,33,23,12,43,25,8,30.10,30.05,30.00,10,10,10,10,1,,0.00,0,,274
2013-1-22,79,66,54,34,20,9,37,21,7,30.10,30.06,30.01,10,10,10,7,2,,0.00,0,,12
2013-1-23,73,64,55,54,34,25,83,37,17,30.14,30.06,30.02,10,10,6,8,2,,0.03,3,Rain,124
2013-1-24,66,60,55,57,53,50,94,81,61,30.20,30.14,30.11,10,7,2,12,6,17,0.65,8,Rain,88
2013-1-25,66,63,60,61,58,56,94,84,70,30.12,30.04,29.96,10,9,3,8,1,,0.16,8,Rain,69
2013-1-26,64,59,54,60,56,54,100,90,73,30.01,29.94,29.91,10,6,0,10,2,,0.05,7,Fog-Rain,252
2013-1-27,59,56,53,55,47,27,100,75,37,30.04,30.00,29.97,10,8,2,13,4,,0.04,6,Rain,257
2013-1-28,59,54,50,40,29,25,53,38,27,30.19,30.11,30.04,10,10,10,16,8,26,0.00,0,,311
2013-1-29,60,52,45,44,36,27,74,55,36,30.24,30.20,30.17,10,10,10,12,3,,0.00,0,,206
2013-1-30,66,56,46,48,42,37,83,64,33,30.35,30.27,30.23,10,10,10,8,1,,0.00,0,,268
2013-1-31,73,60,48,50,44,35,93,63,24,30.25,30.16,30.11,10,10,6,10,1,,0.00,0,,268